DELTA 1 DEB, 7893

Orbit data source: Space-Track

DELTA 1 DEB, 7893 is space debris in SSO originally from a launch on Sun, 23 Jul 1972 UTC launched from the Air Force Western Test Range (AFWTR). Debris objects in space refer to the collection of defunct objects orbiting the Earth. Examples of debris include non-operational satellites, rocket bodies, and fragments generated from explosions, collisions, or faulty payload assembly.

Loading next visibility...
Identifier
7893, 1972-058BK
Orbit
SSO
Country
Flag of USUS
Related business
Manufacturer
Unknown
Mission
Spacecraft
Bus & Motor
Unknown
Mass
Unknown
Launch date (UTC)
1972-07-23 (53 years ago)
Launch vehicle
Unknown
Launch site
Air Force Western Test Range (AFWTR)
Object type
Payload
Rocket body
Debris
Shape & HBR
Unknown shape, 0.3 m
Radar Cross Section
Medium (>0.1 m² and <1 m²)

Expand to show TLE details & history
Last TLE update: 3 hours ago

TLE from 3 hours ago
0 DELTA 1 DEB
1  7893U 72058BK  25300.18903617  .00000759  00000-0  44741-3 0  9998
2  7893  97.8120  22.7808 0392567 286.4771  69.3597 13.77967519499769
Epoch: 2025-10-27T04:32Z
TLE epoch observation values (Epoch: 2025-10-27T04:32:12.725Z)
Latitude
-0.00007°
Longitude
-81.06667°
Altitude
882.398 km
Speed
7.457 km/s
True Right ascension
01h 31m 07s
True Declination
0° 00' 00"
Sunlit
Object was in full shadow at epoch
Visualization orbit readout
Latitude
Unknown
Longitude
Unknown
Altitude
Unknown
Speed
Unknown
Apparent Right ascension
Unknown
Apparent Declination
Unknown
Sunlit
N/A
Visualization observer readout
Local Sidereal Time
03:00:46
Azimuth
Unknown
Elevation
Unknown
Doppler factor
Unknown
Orbital elements
Apogee altitude
1,256.669 km
Perigee altitude
679.877 km
Semi-major axis
7,346.41 km
Eccentricity
0.03926
Inclination
97.812°
RAAN
22.7808°
Arg. of periapsis
286.4771°
True anomaly
73.63949°
Mean anomaly
69.3597°
Eccentric anomaly
71.49262°
Mean motion
3.44691 °/min
Orbital period
104.44 mins
BSTAR
0.00044741
Loading maneuver chart data...
Computing Atmospheric mass density...
Loading historical data...
Loading historical data...
Loading historical data...
Loading historical data...
Loading historical data...
Loading historical data...
Loading historical data...

Documentation

Showing up to 5 results
|